Orbital Elements at Epoch 2459000.5 (2020-May-31.0) TDB
Reference: JPL 4 (heliocentric ecliptic J2000)
Element | Value | Uncertainty (1-sigma) | Units |
e | .2782658286303938 | 0.00015011 | |
a | 1.101353311683462 | 0.00015403 | au |
q | .7948843197930348 | 5.4174e-05 | au |
i | 16.93255081998836 | 0.0082579 | deg |
node | 158.441097594892 | 8.5848e-05 | deg |
peri | 88.03550637556434 | 0.0075822 | deg |
M | 333.9019705340216 | 0.059194 | deg |
tp | 2459031.105088260045 (2020-Jun-30.60508826) | 0.075837 | TDB |
period | 422.1710220681317 1.16 | 0.088563 0.0002425 | d yr |
n | .8527349845956547 | 0.00017889 | deg/d |
Q | 1.407822303573888 | 0.00019689 | au |
|
| | Orbit Determination Parameters
Additional Information
|